Time,TemperatureF,DewpointF,PressureIn,WindDirection,WindDirectionDegrees,WindSpeedMPH,WindSpeedGustMPH,Humidity,HourlyPrecipIn,Conditions,Clouds,dailyrainin,SoftwareType,DateUTC
2013-03-24 00:02:00,20.0,8.0,-100.00,North,-999,0.0,0.0,58,-99.99,,,0.00,,2013-03-24 06:02:00,
2013-03-24 00:12:00,19.0,8.0,-100.00,North,-999,0.0,0.0,63,-99.99,,,0.00,,2013-03-24 06:12:00,
2013-03-24 00:22:00,19.0,8.0,-100.00,North,-999,0.0,0.0,63,-99.99,,,0.00,,2013-03-24 06:22:00,
2013-03-24 00:32:00,18.0,9.0,-100.00,North,-999,0.0,0.0,66,-99.99,,,0.00,,2013-03-24 06:32:00,
2013-03-24 00:42:00,18.0,9.0,-100.00,North,-999,0.0,0.0,66,-99.99,,,0.00,,2013-03-24 06:42:00,
2013-03-24 00:52:00,18.0,9.0,-100.00,North,-999,0.0,0.0,67,-99.99,,,0.00,,2013-03-24 06:52:00,
2013-03-24 01:02:00,18.0,9.0,-100.00,North,-999,0.0,0.0,67,-99.99,,,0.00,,2013-03-24 07:02:00,
2013-03-24 01:12:00,16.0,9.0,-100.00,North,-999,0.0,0.0,72,-99.99,,,0.00,,2013-03-24 07:12:00,
2013-03-24 01:22:00,16.0,9.0,-100.00,North,-999,0.0,0.0,72,-99.99,,,0.00,,2013-03-24 07:22:00,
2013-03-24 01:32:00,16.0,9.0,-100.00,North,-999,0.0,0.0,73,-99.99,,,0.00,,2013-03-24 07:32:00,
2013-03-24 01:42:00,16.0,9.0,-100.00,North,-999,0.0,0.0,73,-99.99,,,0.00,,2013-03-24 07:42:00,
2013-03-24 01:52:00,16.0,9.0,-100.00,SSE,160,0.0,1.0,75,-99.99,,,0.00,,2013-03-24 07:52:00,
2013-03-24 02:02:00,16.0,9.0,-100.00,SSE,160,0.0,1.0,75,-99.99,,,0.00,,2013-03-24 08:02:00,
2013-03-24 02:12:00,15.0,9.0,-100.00,SSE,165,0.0,3.0,77,-99.99,,,0.00,,2013-03-24 08:12:00,
2013-03-24 02:22:00,15.0,9.0,-100.00,SSE,165,0.0,3.0,77,-99.99,,,0.00,,2013-03-24 08:22:00,
2013-03-24 02:32:00,14.0,9.0,-100.00,North,-999,0.0,0.0,78,-99.99,,,0.00,,2013-03-24 08:32:00,
2013-03-24 02:41:00,14.0,9.0,-100.00,North,-999,0.0,0.0,78,-99.99,,,0.00,,2013-03-24 08:41:00,
2013-03-24 02:52:00,14.0,9.0,-100.00,North,-999,0.0,0.0,79,-99.99,,,0.00,,2013-03-24 08:52:00,
2013-03-24 03:02:00,14.0,9.0,-100.00,North,-999,0.0,0.0,79,-99.99,,,0.00,,2013-03-24 09:02:00,
2013-03-24 03:12:00,14.0,9.0,-100.00,North,-999,0.0,0.0,81,-99.99,,,0.00,,2013-03-24 09:12:00,
2013-03-24 03:22:00,14.0,9.0,-100.00,North,-999,0.0,0.0,81,-99.99,,,0.00,,2013-03-24 09:22:00,
2013-03-24 03:33:00,14.0,9.0,-100.00,North,-999,0.0,0.0,82,-99.99,,,0.00,,2013-03-24 09:33:00,
2013-03-24 03:42:00,14.0,9.0,-100.00,North,-999,0.0,0.0,82,-99.99,,,0.00,,2013-03-24 09:42:00,
2013-03-24 03:52:00,13.0,9.0,-100.00,North,-999,0.0,0.0,83,-99.99,,,0.00,,2013-03-24 09:52:00,
2013-03-24 04:02:00,13.0,9.0,-100.00,North,-999,0.0,0.0,83,-99.99,,,0.00,,2013-03-24 10:02:00,
2013-03-24 04:12:00,13.0,9.0,-100.00,North,-999,0.0,0.0,84,-99.99,,,0.00,,2013-03-24 10:12:00,
2013-03-24 04:22:00,13.0,9.0,-100.00,North,-999,0.0,0.0,84,-99.99,,,0.00,,2013-03-24 10:22:00,
2013-03-24 04:32:00,12.0,8.0,-100.00,SSE,160,0.0,3.0,84,-99.99,,,0.00,,2013-03-24 10:32:00,
2013-03-24 04:42:00,12.0,8.0,-100.00,SSE,160,0.0,3.0,84,-99.99,,,0.00,,2013-03-24 10:42:00,
2013-03-24 04:52:00,12.0,9.0,-100.00,North,-999,0.0,0.0,86,-99.99,,,0.00,,2013-03-24 10:52:00,
2013-03-24 05:02:00,12.0,9.0,-100.00,North,-999,0.0,0.0,86,-99.99,,,0.00,,2013-03-24 11:02:00,
2013-03-24 05:12:00,11.0,8.0,-100.00,North,-999,0.0,0.0,89,-99.99,,,0.00,,2013-03-24 11:12:00,
2013-03-24 05:22:00,11.0,8.0,-100.00,North,-999,0.0,0.0,89,-99.99,,,0.00,,2013-03-24 11:22:00,
2013-03-24 05:32:00,11.0,8.0,-100.00,North,-999,0.0,0.0,89,-99.99,,,0.00,,2013-03-24 11:32:00,
2013-03-24 05:42:00,11.0,8.0,-100.00,North,-999,0.0,0.0,89,-99.99,,,0.00,,2013-03-24 11:42:00,
2013-03-24 05:52:00,10.0,8.0,-100.00,SSW,195,0.0,1.0,90,-99.99,,,0.00,,2013-03-24 11:52:00,
2013-03-24 06:02:00,10.0,8.0,-100.00,SSW,195,0.0,1.0,90,-99.99,,,0.00,,2013-03-24 12:02:00,
2013-03-24 06:12:00,10.0,8.0,-100.00,North,-999,0.0,0.0,92,-99.99,,,0.00,,2013-03-24 12:12:00,
2013-03-24 06:22:00,10.0,8.0,-100.00,North,-999,0.0,0.0,92,-99.99,,,0.00,,2013-03-24 12:22:00,
2013-03-24 06:32:00,9.0,7.0,-100.00,North,-999,0.0,0.0,93,-99.99,,,0.00,,2013-03-24 12:32:00,
2013-03-24 06:42:00,9.0,7.0,-100.00,North,-999,0.0,0.0,93,-99.99,,,0.00,,2013-03-24 12:42:00,
2013-03-24 06:52:00,9.0,7.0,-100.00,North,-999,0.0,0.0,93,-99.99,,,0.00,,2013-03-24 12:52:00,
2013-03-24 07:02:00,9.0,7.0,-100.00,North,-999,0.0,0.0,93,-99.99,,,0.00,,2013-03-24 13:02:00,
2013-03-24 07:12:00,9.0,7.0,-100.00,North,-999,0.0,0.0,94,-99.99,,,0.00,,2013-03-24 13:12:00,
2013-03-24 07:22:00,9.0,7.0,-100.00,North,-999,0.0,0.0,94,-99.99,,,0.00,,2013-03-24 13:22:00,
2013-03-24 07:32:00,9.0,7.0,-100.00,North,-999,0.0,0.0,95,-99.99,,,0.00,,2013-03-24 13:32:00,
2013-03-24 07:42:00,9.0,7.0,-100.00,North,-999,0.0,0.0,95,-99.99,,,0.00,,2013-03-24 13:42:00,
2013-03-24 07:52:00,8.0,7.0,-100.00,SSW,205,0.0,1.0,96,-99.99,,,0.00,,2013-03-24 13:52:00,
2013-03-24 08:02:00,8.0,7.0,-100.00,SSW,205,0.0,1.0,96,-99.99,,,0.00,,2013-03-24 14:02:00,
2013-03-24 08:12:00,8.0,7.0,-100.00,North,-999,0.0,0.0,96,-99.99,,,0.00,,2013-03-24 14:12:00,
2013-03-24 08:22:00,8.0,7.0,-100.00,North,-999,0.0,0.0,96,-99.99,,,0.00,,2013-03-24 14:22:00,
2013-03-24 08:32:00,8.0,7.0,-100.00,North,-999,0.0,0.0,96,-99.99,,,0.00,,2013-03-24 14:32:00,
2013-03-24 08:42:00,8.0,7.0,-100.00,North,-999,0.0,0.0,96,-99.99,,,0.00,,2013-03-24 14:42:00,
2013-03-24 08:52:00,8.0,7.0,-100.00,North,-999,0.0,0.0,96,-99.99,,,0.00,,2013-03-24 14:52:00,
2013-03-24 09:02:00,8.0,7.0,-100.00,North,-999,0.0,0.0,96,-99.99,,,0.00,,2013-03-24 15:02:00,
2013-03-24 09:12:00,13.0,12.0,-100.00,North,-999,0.0,0.0,96,-99.99,,,0.00,,2013-03-24 15:12:00,
2013-03-24 09:22:00,13.0,12.0,-100.00,North,-999,0.0,0.0,96,-99.99,,,0.00,,2013-03-24 15:22:00,
2013-03-24 09:33:00,15.0,14.0,-100.00,North,-999,0.0,0.0,95,-99.99,,,0.00,,2013-03-24 15:33:00,
2013-03-24 09:43:00,15.0,14.0,-100.00,North,-999,0.0,0.0,95,-99.99,,,0.00,,2013-03-24 15:43:00,
2013-03-24 09:53:00,16.0,14.0,-100.00,North,-999,0.0,0.0,91,-99.99,,,0.00,,2013-03-24 15:53:00,
2013-03-24 10:02:00,16.0,14.0,-100.00,North,-999,0.0,0.0,91,-99.99,,,0.00,,2013-03-24 16:02:00,
2013-03-24 10:12:00,20.0,16.0,-100.00,North,-999,0.0,0.0,83,-99.99,,,0.00,,2013-03-24 16:12:00,
2013-03-24 10:22:00,20.0,16.0,-100.00,North,-999,0.0,0.0,83,-99.99,,,0.00,,2013-03-24 16:22:00,
2013-03-24 10:32:00,22.0,16.0,-100.00,South,190,0.0,1.0,77,-99.99,,,0.00,,2013-03-24 16:32:00,
2013-03-24 10:42:00,22.0,16.0,-100.00,South,190,0.0,1.0,77,-99.99,,,0.00,,2013-03-24 16:42:00,
2013-03-24 10:52:00,22.0,14.0,-100.00,North,-999,0.0,0.0,72,-99.99,,,0.00,,2013-03-24 16:52:00,
2013-03-24 11:02:00,22.0,14.0,-100.00,North,-999,0.0,0.0,72,-99.99,,,0.00,,2013-03-24 17:02:00,
2013-03-24 11:12:00,26.0,15.0,-100.00,North,-999,0.0,0.0,64,-99.99,,,0.00,,2013-03-24 17:12:00,
2013-03-24 11:22:00,26.0,15.0,-100.00,North,-999,0.0,0.0,64,-99.99,,,0.00,,2013-03-24 17:22:00,
2013-03-24 11:32:00,27.0,15.0,-100.00,North,-999,0.0,0.0,59,-99.99,,,0.00,,2013-03-24 17:32:00,
2013-03-24 11:42:00,27.0,15.0,-100.00,North,-999,0.0,0.0,59,-99.99,,,0.00,,2013-03-24 17:42:00,
2013-03-24 11:52:00,29.0,15.0,-100.00,North,-999,0.0,0.0,55,-99.99,,,0.00,,2013-03-24 17:52:00,
2013-03-24 12:02:00,29.0,15.0,-100.00,North,-999,0.0,0.0,55,-99.99,,,0.00,,2013-03-24 18:02:00,
2013-03-24 12:12:00,29.0,13.0,-100.00,SSE,165,2.0,5.0,49,-99.99,,,0.00,,2013-03-24 18:12:00,
2013-03-24 12:22:00,29.0,13.0,-100.00,SSE,165,2.0,5.0,49,-99.99,,,0.00,,2013-03-24 18:22:00,
2013-03-24 12:32:00,31.0,14.0,-100.00,SSW,200,1.0,4.0,48,-99.99,,,0.00,,2013-03-24 18:32:00,
2013-03-24 12:42:00,31.0,14.0,-100.00,SSW,200,1.0,4.0,48,-99.99,,,0.00,,2013-03-24 18:42:00,
2013-03-24 12:52:00,31.0,12.0,-100.00,SW,230,3.0,7.0,46,-99.99,,,0.00,,2013-03-24 18:52:00,
2013-03-24 13:02:00,31.0,12.0,-100.00,SW,230,3.0,7.0,46,-99.99,,,0.00,,2013-03-24 19:02:00,
2013-03-24 13:12:00,34.0,11.0,-100.00,North,-999,0.0,0.0,38,-99.99,,,0.00,,2013-03-24 19:12:00,
2013-03-24 13:22:00,34.0,11.0,-100.00,North,-999,0.0,0.0,38,-99.99,,,0.00,,2013-03-24 19:22:00,
2013-03-24 13:32:00,33.0,10.0,-100.00,North,0,4.0,6.0,38,-99.99,,,0.00,,2013-03-24 19:32:00,
2013-03-24 13:42:00,33.0,10.0,-100.00,North,0,4.0,6.0,38,-99.99,,,0.00,,2013-03-24 19:42:00,
2013-03-24 13:52:00,34.0,11.0,-100.00,East,80,3.0,6.0,37,-99.99,,,0.00,,2013-03-24 19:52:00,
2013-03-24 14:02:00,34.0,11.0,-100.00,East,80,3.0,6.0,37,-99.99,,,0.00,,2013-03-24 20:02:00,
2013-03-24 14:12:00,33.0,9.0,-100.00,WNW,285,4.0,6.0,36,-99.99,,,0.00,,2013-03-24 20:12:00,
2013-03-24 14:22:00,33.0,9.0,-100.00,WNW,285,4.0,6.0,36,-99.99,,,0.00,,2013-03-24 20:22:00,
2013-03-24 14:32:00,35.0,10.0,-100.00,West,260,1.0,4.0,35,-99.99,,,0.00,,2013-03-24 20:32:00,
2013-03-24 14:42:00,35.0,10.0,-100.00,West,260,1.0,4.0,35,-99.99,,,0.00,,2013-03-24 20:42:00,
2013-03-24 14:52:00,34.0,9.0,-100.00,SW,235,2.0,6.0,35,-99.99,,,0.00,,2013-03-24 20:52:00,
2013-03-24 15:02:00,34.0,9.0,-100.00,SW,235,2.0,6.0,35,-99.99,,,0.00,,2013-03-24 21:02:00,
2013-03-24 15:12:00,35.0,11.0,-100.00,SSW,200,3.0,5.0,35,-99.99,,,0.00,,2013-03-24 21:12:00,
2013-03-24 15:22:00,35.0,11.0,-100.00,SSW,200,3.0,5.0,35,-99.99,,,0.00,,2013-03-24 21:22:00,
2013-03-24 15:32:00,35.0,9.0,-100.00,SW,235,5.0,6.0,34,-99.99,,,0.00,,2013-03-24 21:32:00,
2013-03-24 15:43:00,35.0,9.0,-100.00,SW,235,5.0,6.0,34,-99.99,,,0.00,,2013-03-24 21:43:00,
2013-03-24 15:52:00,35.0,9.0,-100.00,SW,235,5.0,6.0,34,-99.99,,,0.00,,2013-03-24 21:52:00,
2013-03-24 16:02:00,35.0,9.0,-100.00,SW,235,5.0,6.0,34,-99.99,,,0.00,,2013-03-24 22:02:00,
2013-03-24 16:13:00,37.0,10.0,-100.00,NNE,25,5.0,6.0,33,-99.99,,,0.00,,2013-03-24 22:13:00,
2013-03-24 16:22:00,37.0,10.0,-100.00,NNE,25,5.0,6.0,33,-99.99,,,0.00,,2013-03-24 22:22:00,
2013-03-24 16:33:00,39.0,11.0,-100.00,North,-999,0.0,0.0,32,-99.99,,,0.00,,2013-03-24 22:33:00,
2013-03-24 16:42:00,39.0,11.0,-100.00,North,-999,0.0,0.0,32,-99.99,,,0.00,,2013-03-24 22:42:00,
2013-03-24 16:52:00,39.0,11.0,-100.00,ENE,65,0.0,1.0,31,-99.99,,,0.00,,2013-03-24 22:52:00,
2013-03-24 17:02:00,39.0,11.0,-100.00,ENE,65,0.0,1.0,31,-99.99,,,0.00,,2013-03-24 23:02:00,
2013-03-24 17:12:00,38.0,8.0,-100.00,SSW,205,9.0,11.0,29,-99.99,,,0.00,,2013-03-24 23:12:00,
2013-03-24 17:22:00,38.0,8.0,-100.00,SSW,205,9.0,11.0,29,-99.99,,,0.00,,2013-03-24 23:22:00,
2013-03-24 17:32:00,39.0,10.0,-100.00,SE,140,1.0,4.0,29,-99.99,,,0.00,,2013-03-24 23:32:00,
2013-03-24 17:42:00,39.0,10.0,-100.00,SE,140,1.0,4.0,29,-99.99,,,0.00,,2013-03-24 23:42:00,
2013-03-24 17:52:00,38.0,8.0,-100.00,North,-999,0.0,0.0,29,-99.99,,,0.00,,2013-03-24 23:52:00,
2013-03-24 18:02:00,38.0,8.0,-100.00,North,-999,0.0,0.0,29,-99.99,,,0.00,,2013-03-25 00:02:00,
2013-03-24 18:12:00,38.0,9.0,-100.00,NNW,345,6.0,7.0,29,-99.99,,,0.00,,2013-03-25 00:12:00,
2013-03-24 18:22:00,38.0,9.0,-100.00,NNW,345,6.0,7.0,29,-99.99,,,0.00,,2013-03-25 00:22:00,
2013-03-24 18:32:00,38.0,9.0,-100.00,NNW,345,6.0,7.0,29,-99.99,,,0.00,,2013-03-25 00:32:00,
2013-03-24 18:42:00,38.0,9.0,-100.00,NNW,345,6.0,7.0,29,-99.99,,,0.00,,2013-03-25 00:42:00,
2013-03-24 18:52:00,36.0,9.0,-100.00,NNW,340,8.0,10.0,32,-99.99,,,0.00,,2013-03-25 00:52:00,
2013-03-24 19:02:00,36.0,9.0,-100.00,NNW,340,8.0,10.0,32,-99.99,,,0.00,,2013-03-25 01:02:00,
2013-03-24 19:12:00,35.0,9.0,-100.00,North,355,4.0,8.0,33,-99.99,,,0.00,,2013-03-25 01:12:00,
2013-03-24 19:22:00,35.0,9.0,-100.00,North,355,4.0,8.0,33,-99.99,,,0.00,,2013-03-25 01:22:00,
2013-03-24 19:32:00,35.0,9.0,-100.00,North,10,8.0,11.0,34,-99.99,,,0.00,,2013-03-25 01:32:00,
2013-03-24 19:42:00,35.0,9.0,-100.00,North,10,8.0,11.0,34,-99.99,,,0.00,,2013-03-25 01:42:00,
2013-03-24 19:52:00,34.0,8.0,-100.00,North,355,10.0,14.0,34,-99.99,,,0.00,,2013-03-25 01:52:00,
2013-03-24 20:02:00,34.0,8.0,-100.00,North,355,10.0,14.0,34,-99.99,,,0.00,,2013-03-25 02:02:00,
2013-03-24 20:12:00,33.0,8.0,-100.00,North,5,9.0,12.0,35,-99.99,,,0.00,,2013-03-25 02:12:00,
2013-03-24 20:22:00,33.0,8.0,-100.00,North,5,9.0,12.0,35,-99.99,,,0.00,,2013-03-25 02:22:00,
2013-03-24 20:32:00,32.0,8.0,-100.00,NNE,20,9.0,10.0,36,-99.99,,,0.00,,2013-03-25 02:32:00,
2013-03-24 20:42:00,32.0,8.0,-100.00,NNE,20,9.0,10.0,36,-99.99,,,0.00,,2013-03-25 02:42:00,
2013-03-24 20:52:00,31.0,8.0,-100.00,NE,55,1.0,4.0,36,-99.99,,,0.00,,2013-03-25 02:52:00,
2013-03-24 21:02:00,31.0,8.0,-100.00,NE,55,1.0,4.0,36,-99.99,,,0.00,,2013-03-25 03:02:00,
2013-03-24 21:12:00,29.0,7.0,-100.00,North,-999,0.0,0.0,39,-99.99,,,0.00,,2013-03-25 03:12:00,
2013-03-24 21:22:00,29.0,7.0,-100.00,North,-999,0.0,0.0,39,-99.99,,,0.00,,2013-03-25 03:22:00,
2013-03-24 21:33:00,28.0,7.0,-100.00,North,-999,0.0,0.0,40,-99.99,,,0.00,,2013-03-25 03:33:00,
2013-03-24 21:42:00,28.0,7.0,-100.00,North,-999,0.0,0.0,40,-99.99,,,0.00,,2013-03-25 03:42:00,
2013-03-24 21:52:00,27.0,7.0,-100.00,North,-999,0.0,0.0,43,-99.99,,,0.00,,2013-03-25 03:52:00,
2013-03-24 22:02:00,27.0,7.0,-100.00,North,-999,0.0,0.0,43,-99.99,,,0.00,,2013-03-25 04:02:00,
2013-03-24 22:12:00,25.0,8.0,-100.00,North,-999,0.0,0.0,47,-99.99,,,0.00,,2013-03-25 04:12:00,
2013-03-24 22:22:00,25.0,8.0,-100.00,North,-999,0.0,0.0,47,-99.99,,,0.00,,2013-03-25 04:22:00,
2013-03-24 22:32:00,24.0,8.0,-100.00,North,-999,0.0,0.0,49,-99.99,,,0.00,,2013-03-25 04:32:00,
2013-03-24 22:42:00,24.0,8.0,-100.00,North,-999,0.0,0.0,49,-99.99,,,0.00,,2013-03-25 04:42:00,
2013-03-24 22:52:00,24.0,8.0,-100.00,North,-999,0.0,0.0,50,-99.99,,,0.00,,2013-03-25 04:52:00,
2013-03-24 23:02:00,24.0,8.0,-100.00,North,-999,0.0,0.0,50,-99.99,,,0.00,,2013-03-25 05:02:00,
2013-03-24 23:12:00,24.0,10.0,-100.00,South,190,1.0,3.0,54,-99.99,,,0.00,,2013-03-25 05:12:00,
2013-03-24 23:22:00,24.0,10.0,-100.00,South,190,1.0,3.0,54,-99.99,,,0.00,,2013-03-25 05:22:00,
2013-03-24 23:32:00,23.0,9.0,-100.00,SSW,205,1.0,3.0,54,-99.99,,,-99.99,,2013-03-25 05:32:00,
2013-03-24 23:42:00,23.0,9.0,-100.00,SSW,205,1.0,3.0,54,-99.99,,,-99.99,,2013-03-25 05:42:00,
2013-03-24 23:52:00,22.0,8.0,-100.00,SSW,195,1.0,1.0,55,-99.99,,,0.00,,2013-03-25 05:52:00,